Starlink 4057

operational
NORAD ID: 53269 Int'l Des: 2022-086 Owner: SPXS Country: US Constellation: starlink
LEOCIRCULAR

关于 Starlink 4057

正在加载描述...

实时位置

正在加载3D地球...

即将过境

高度历史

Altitude vs Time

uPlot chart will show altitude changes over time

两行轨道根数

1 53269U 22086AD 25258.24060012 -.00000057 00000-0 14517-4 0 9995
2 53269 53.2171 251.7439 0001386 87.4035 272.7116 15.08837715174713
Epoch: Sep 15, 2025 • Age: 8 hours

当前状态

高度 557.7 km
速度 7.58 km/s
星下点 -49.47°S, 5.98°W
发射日期 Jul 24, 2022
运行时间 3.1 years
类型 internet

技术详情

分类 Payload
质量 297.00 kg
干质量 275.00 kg
总质量 297.00 kg
长度 0.20 m
直径 2.80 m
跨度 9.00 m
形状 Box + pan
制造商 SPXS
平台类型 Starlink
阶段状态 In Orbit
所有者/国家 SPXS/US

大型星座

Loading constellations...